Orbital Elements at Epoch 2459200.5 (2020-Dec-17.0) TDB
Reference: JPL 18 (heliocentric ecliptic J2000)
Element | Value | Uncertainty (1-sigma) | Units |
e | .1574144578214329 | 5.5994e-08 | |
a | 2.440711047557768 | 1.135e-08 | au |
q | 2.05650784130768 | 1.3878e-07 | au |
i | 2.948214572269588 | 4.1465e-06 | deg |
node | 66.68582010816161 | 0.00011165 | deg |
peri | 74.31900245110319 | 0.00011303 | deg |
M | 11.82108247810982 | 1.6668e-05 | deg |
tp | 2459154.767207156330 (2020-Nov-01.26720716) | 6.4433e-05 | TDB |
period | 1392.749391116132 3.81 | 9.7149e-06 2.66e-08 | d yr |
n | .2584815346510406 | 1.803e-09 | deg/d |
Q | 2.824914253807855 | 1.3136e-08 | au |
|
| | Orbit Determination Parameters
Additional Information
|